Regional Weather Roundup
Issued by NWS

Home | Current Version | Previous Version | Graphics & Text | Print | Product List | Glossary On
Versions: 1 2 3 4 5 6 7 8 9 10 11 12 13 14 15 16 17 18 19 20 21 22 23 24 25 26 27 28 29 30 31 32 33 34 35 36 37 38 39 40 41 42 43 44 45 46 47 48 49 50
966
ASUS44 KLIX 240510
RWRLA
LOUISIANA WEATHER ROUNDUP
NATIONAL WEATHER SERVICE NEW ORLEANS LA
1200 AM CDT THU APR 24 2014

NOTE: "FAIR" INDICATES FEW OR NO CLOUDS BELOW 12,000 FEET WITH NO
      SIGNIFICANT WEATHER AND/OR OBSTRUCTIONS TO VISIBILITY.
      SKY/WX - SKY CONDITION AND SIGNIFICANT WEATHER.
      TMP - AIR TEMPERATURE.    DP   - DEWPOINT TEMPERATURE.
      RH  - RELATIVE HUMIDITY.  PRES - PRESSURE.
      HX  - HEAT INDEX.         WCI  - WIND CHILL INDEX.

*  THESE STATIONS ARE NOT NWS OR FAA STATIONS AND ARE NOT UNDER
   NWS QUALITY CONTROL.

LAZ040-048-061>063-065-066-069-240600-
SOUTHEAST LOUISIANA

CITY           SKY/WX    TMP DP  RH WIND       PRES   REMARKS
N.O. AUDUBON     N/A     71  67  87 MISG        N/A
N.O. INTL ARPT PTCLDY    67  64  90 S5        29.92F
N.O. LAKEFRONT CLEAR     71  65  81 SW5       29.92F
N.O. DOWNTOWN* FAIR      73  63  68 S5        29.93F
SLIDELL        CLEAR     63  59  87 CALM      29.92F
BATON ROUGE    CLEAR     68  61  78 S5        29.92S
BOOTHVILLE     CLEAR     69  67  93 S6        29.94S
BELLE CHASSE   CLEAR     64  61  90 CALM      29.92F
BOGALUSA*        N/A     62  58  86 CALM      29.93F
GALLIANO*      CLEAR     64  61  89 SE3       29.92F
NEW ROADS*     MOCLDY    68  62  79 S3        29.93R
GONZALES*      FAIR      64  64  99 CALM      29.92S
HAMMOND*       CLEAR     68  63  83 CALM      29.93F
HOUMA*           N/A     63  61  93 S3        29.92F FOG
PORT FOURCHON* CLEAR     72  66  83 S7        29.94F

$$

LAZ041-044-053-054-240600-
SOUTHWEST LOUISIANA

CITY           SKY/WX    TMP DP  RH WIND       PRES   REMARKS
LAKE CHARLES   CLEAR     67  65  93 S3        29.91F
LAFAYETTE      CLEAR     66  63  90 SW5       29.93R
PATTERSON      CLEAR     64  64 100 CALM      29.96S
SALT POINT       N/A     71  67  87 CALM      29.93R
NEW IBERIA     CLEAR     65  63  93 CALM      29.93R
CHENAULT AIRPK CLEAR     64  64  98 S6        29.92S FOG

$$

LAZ027-028-240600-
CENTRAL LOUISIANA

CITY           SKY/WX    TMP DP  RH WIND       PRES   REMARKS
FORT POLK      CLEAR     66  62  87 S6        29.90S
ALEXANDRIA INT CLEAR     64  60  87 SE7       29.89S
ALEXANDRIA     CLEAR     60  56  86 CALM      29.91R

$$

LAZ001-002-240600-
NORTHWEST LOUISIANA

CITY           SKY/WX    TMP DP  RH WIND       PRES   REMARKS
SHREVEPORT     PTCLDY    67  56  67 SE7       29.87R
BARKSDALE AFB  CLEAR     66  54  65 SE10      29.88R
DTN SHREVEPORT CLEAR     67  54  63 SE7       29.88R

$$

LAZ014-016-240600-
NORTHEAST LOUISIANA

CITY           SKY/WX    TMP DP  RH WIND       PRES   REMARKS
MONROE         CLEAR     59  50  72 CALM      29.92R
TALLULAH       CLEAR     59  54  83 CALM      29.91S

$$




USA.gov is the U.S. government's official web portal to all federal, state and local government web resources and services.